Weather in Vydropuzhsk

Russia / Tver Oblast     57°21′55″N   34°50′39″E
temp.,
°C
wind,
m/s
gust,
m/s
humid.,
%
clouds,
%
prec.,
mm/h
press.,
hPa
HPBL,
m
15 may, sat
sat1500:00+11ese249638 0.0 101187
03:00+10e2797100 0.0 1009160
06:00+12ese279987 0.9 1007277
09:00+14se2697100 2.3 1007425
12:00+18s258056 1.3 1007772
15:00+22ssw474438 1.7 10052411
18:00+20ssw486026 0.0 10051139
21:00+14s38885 0.1 1005205
16 may, sun
sun1600:00+12ssw310955 0.0 1006277
03:00+10ssw28975 0.0 1007168
06:00+11ssw399321 0.0 1007289
09:00+17sw476910 0.0 1008823
12:00+18sw4671100 1.0 10091424
15:00+19wsw4574100 3.9 10101152
18:00+18wsw248098 2.0 1010686
21:00+14sw229399 2.3 101218
17 may, mon
mon1700:00+12ssw119499 0.0 101311
03:00+11s119563 0.0 101410
06:00+12sse1395100 0.0 101483
09:00+17sse3579100 0.0 1014454
12:00+21sse465497 0.0 10131411
15:00+23ese464563 0.0 10111650
18:00+22ese495893 0.0 10101299
21:00+18ese41378100 0.1 1009444
18 may, tue
tue1800:00+17ese41491100 0.0 1008435
03:00+16se41395100 0.0 1006414
06:00+16se41190100 0.1 1006411
09:00+20se51071100 0.1 1004583
12:00+24se695584 0.0 10041283
15:00+27se61147100 0.1 10022080
18:00+20sse6127692 1.0 1002997
21:00+18se7158578 3.5 10021095
19 may, wed
wed1900:00+15sse6139395 0.2 1002908
03:00+15sse5118651 0.2 1002838
06:00+14sse3893100 0.0 1003395
09:00+18se477585 0.0 1002886
12:00+21sse596394 1.1 10001634
15:00+19ese5980100 2.9 9981131
18:00+17se71287100 1.9 9951209
21:00+13se7149399 2.1 993841